Weather History for Clarinda, IA

Change the Weather History Date:

Monday, February 18, 2013

  Actual Average Record
Temperature  
Mean Temperature 28 °F -  
Max Temperature 39 °F 39 °F 62 °F (1997)
Min Temperature 17 °F 23 °F 0 °F (2006)
Degree Days  
Heating Degree Days 37    
Moisture  
Dew Point 23 °F    
Average Humidity 77    
Maximum Humidity 100    
Minimum Humidity 59    
Precipitation  
Precipitation 0.00 in - - ()
Sea Level Pressure  
Sea Level Pressure 29.74 in    
Wind  
Wind Speed 10 mph (NW)    
Max Wind Speed 25 mph    
Max Gust Speed 33 mph    
Visibility 10 miles    
Events Snow    
Averages and records for this station are not official NWS values.
T = Trace of Precipitation, MM = Missing Value Source: NWS Daily Summary

Daily Weather History Graph

Daily Weather History Graph

Search for Another Location

Airport:

Trip Planner

Search our weather history database for the weather conditions in past years. The results will help you decide how hot, cold, wet, or windy it might be!

Date:

Astronomy

Feb. 18, 2013 Rise Set
Actual Time 7:09 AM CST 5:58 PM CST
Civil Twilight 6:41 AM CST 6:26 PM CST
Nautical Twilight 6:09 AM CST 6:58 PM CST
Astronomical Twilight 5:38 AM CST 7:30 PM CST
Moon 11:44 AM CST (2/18) 1:51 AM CST (2/18)
Length of Visible Light 11h 45m
Length of Day
10h 49m
First Quarter, 58% of the Moon is Illuminated
Feb 18
First Quarter
Feb 25
Full
Mar 4
Last Quarter
Mar 11
New
Mar 19
First Quarter

Hourly Weather History & Observations

Time (CST) Temp. Windchill Dew Point Humidity Pressure Visibility Wind Dir Wind Speed Gust Speed Precip Events Conditions
12:15 AM 39.2 °F 34.2 °F 28.4 °F 65% 29.60 in 10.0 mi South 6.9 mph - N/A   Clear
12:35 AM 37.4 °F 32.8 °F 28.4 °F 70% 29.59 in 10.0 mi South 5.8 mph - N/A   Clear
12:55 AM 35.6 °F 30.7 °F 28.4 °F 75% 29.59 in 10.0 mi South 5.8 mph - N/A   Clear
1:15 AM 33.8 °F 29.6 °F 28.4 °F 81% 29.58 in 10.0 mi South 4.6 mph - N/A   Clear
1:35 AM 33.8 °F 29.6 °F 26.6 °F 75% 29.57 in 10.0 mi South 4.6 mph - N/A   Clear
1:55 AM 33.8 °F 29.6 °F 26.6 °F 75% 29.56 in 10.0 mi South 4.6 mph - N/A   Clear
2:15 AM 33.8 °F - 28.4 °F 81% 29.56 in 10.0 mi Calm Calm - N/A   Clear
2:35 AM 33.8 °F - 26.6 °F 75% 29.55 in 10.0 mi Calm Calm - N/A   Clear
2:55 AM 33.8 °F - 28.4 °F 81% 29.55 in 10.0 mi Calm Calm - N/A   Clear
3:15 AM 30.2 °F - 26.6 °F 86% 29.54 in 10.0 mi Calm Calm - N/A   Clear
3:35 AM 28.4 °F - 26.6 °F 93% 29.54 in 10.0 mi Calm Calm - N/A   Clear
3:55 AM 28.4 °F 23.3 °F 26.6 °F 93% 29.55 in 10.0 mi NW 4.6 mph - N/A   Clear
4:15 AM 30.2 °F 24.3 °F 26.6 °F 86% 29.56 in 10.0 mi NW 5.8 mph - N/A   Clear
4:35 AM 28.4 °F - 26.6 °F 93% 29.56 in 10.0 mi Calm Calm - N/A   Clear
4:55 AM 26.6 °F - 24.8 °F 93% 29.55 in 10.0 mi Calm Calm - N/A   Clear
5:15 AM 24.8 °F - 24.8 °F 100% 29.55 in 10.0 mi Calm Calm - N/A   Clear
5:35 AM 26.6 °F - 24.8 °F 93% 29.56 in 10.0 mi Calm Calm - N/A   Clear
6:15 AM 28.4 °F 20.4 °F 26.6 °F 93% 29.56 in 10.0 mi North 8.1 mph - N/A   Clear
6:35 AM 28.4 °F 23.3 °F 26.6 °F 93% 29.56 in 10.0 mi North 4.6 mph - N/A   Clear
6:55 AM 28.4 °F - 26.6 °F 93% 29.57 in 10.0 mi Calm Calm - N/A   Clear
7:15 AM 26.6 °F 21.2 °F 24.8 °F 93% 29.58 in 10.0 mi North 4.6 mph - N/A   Clear
7:35 AM 30.2 °F 21.9 °F 28.4 °F 93% 29.60 in 10.0 mi North 9.2 mph - N/A   Clear
7:55 AM 33.8 °F 23.5 °F 28.4 °F 81% 29.60 in 10.0 mi North 16.1 mph - N/A   Clear
8:15 AM 35.6 °F 27.1 °F 30.2 °F 81% 29.61 in 10.0 mi North 12.7 mph - N/A   Clear
8:35 AM 35.6 °F 25.5 °F 30.2 °F 81% 29.61 in 10.0 mi North 17.3 mph 20.7 mph N/A   Clear
8:55 AM 35.6 °F 25.5 °F 30.2 °F 81% 29.62 in 10.0 mi North 17.3 mph 23.0 mph N/A   Clear
9:15 AM 37.4 °F 28.9 °F 30.2 °F 75% 29.63 in 10.0 mi North 13.8 mph - N/A   Clear
9:35 AM 39.2 °F 29.3 °F 30.2 °F 70% 29.63 in 10.0 mi North 20.7 mph 25.3 mph N/A   Scattered Clouds
9:55 AM 39.2 °F 29.8 °F 30.2 °F 70% 29.64 in 10.0 mi North 18.4 mph 28.8 mph N/A   Scattered Clouds
10:35 AM 39.2 °F 29.8 °F 30.2 °F 70% 29.67 in 10.0 mi NNW 18.4 mph 24.2 mph N/A   Overcast
10:55 AM 37.4 °F 26.9 °F 30.2 °F 75% 29.68 in 10.0 mi NNW 20.7 mph 27.6 mph N/A   Overcast
11:15 AM 37.4 °F 27.2 °F 30.2 °F 75% 29.70 in 10.0 mi NNW 19.6 mph 28.8 mph N/A   Overcast
11:35 AM 37.4 °F 26.9 °F 30.2 °F 75% 29.70 in 10.0 mi NNW 20.7 mph 27.6 mph N/A   Overcast
11:55 AM 37.4 °F 28.2 °F 30.2 °F 75% 29.69 in 10.0 mi NNW 16.1 mph 26.5 mph N/A   Overcast
12:15 PM 39.2 °F 29.8 °F 30.2 °F 70% 29.69 in 10.0 mi NNW 18.4 mph 28.8 mph N/A   Overcast
12:35 PM 35.6 °F 24.0 °F 28.4 °F 75% 29.71 in 10.0 mi NW 23.0 mph 31.1 mph N/A   Overcast
12:55 PM 30.2 °F 17.4 °F 26.6 °F 86% 29.73 in 0.8 mi NW 20.7 mph 31.1 mph N/A Snow Light Snow
1:15 PM 28.4 °F 14.4 °F 26.6 °F 93% 29.74 in 2.0 mi NNW 23.0 mph 29.9 mph N/A Snow Light Snow
1:35 PM 28.4 °F 15.1 °F 26.6 °F 93% 29.75 in 2.0 mi NNW 20.7 mph 31.1 mph N/A Snow Light Snow
1:55 PM 28.4 °F 17.5 °F 26.6 °F 93% 29.76 in 3.0 mi NNW 13.8 mph 26.5 mph N/A Snow Light Snow
2:15 PM 30.2 °F 18.5 °F 24.8 °F 80% 29.76 in 10.0 mi NW 17.3 mph 28.8 mph N/A   Mostly Cloudy
2:35 PM 30.2 °F 16.8 °F 23.0 °F 75% 29.77 in 10.0 mi NNW 23.0 mph - N/A   Overcast
2:55 PM 28.4 °F 16.2 °F 21.2 °F 74% 29.79 in 10.0 mi NW 17.3 mph 28.8 mph N/A   Overcast
3:15 PM 28.4 °F 14.4 °F 19.4 °F 69% 29.78 in 10.0 mi NNW 23.0 mph 32.2 mph N/A   Scattered Clouds
3:35 PM 30.2 °F 16.2 °F 19.4 °F 64% 29.79 in 10.0 mi NW 25.3 mph 33.4 mph N/A   Scattered Clouds
3:55 PM 30.2 °F 18.5 °F 19.4 °F 64% 29.81 in 10.0 mi NNW 17.3 mph 31.1 mph N/A   Scattered Clouds
4:15 PM 30.2 °F 17.1 °F 17.6 °F 60% 29.81 in 10.0 mi NW 21.9 mph 29.9 mph N/A   Mostly Cloudy
4:35 PM 30.2 °F 18.9 °F 17.6 °F 60% 29.82 in 10.0 mi NW 16.1 mph 32.2 mph N/A   Mostly Cloudy
4:55 PM 28.4 °F 15.1 °F 15.8 °F 59% 29.83 in 10.0 mi NW 20.7 mph 31.1 mph N/A   Scattered Clouds
5:15 PM 28.4 °F 15.8 °F 15.8 °F 59% 29.85 in 10.0 mi NW 18.4 mph 28.8 mph N/A   Clear
5:35 PM 26.6 °F 13.4 °F 15.8 °F 64% 29.87 in 10.0 mi NW 18.4 mph 25.3 mph N/A   Clear
5:55 PM 26.6 °F 15.7 °F 15.8 °F 64% 29.88 in 10.0 mi NW 12.7 mph 20.7 mph N/A   Clear
6:15 PM 26.6 °F 16.2 °F 15.8 °F 64% 29.90 in 10.0 mi NW 11.5 mph 20.7 mph N/A   Clear
6:35 PM 24.8 °F 13.4 °F 15.8 °F 69% 29.91 in 10.0 mi NW 12.7 mph - N/A   Clear
6:55 PM 24.8 °F 11.9 °F 15.8 °F 69% 29.91 in 10.0 mi NW 16.1 mph 21.9 mph N/A   Clear
7:15 PM 24.8 °F 11.9 °F 15.8 °F 69% 29.93 in 10.0 mi NW 16.1 mph 25.3 mph N/A   Clear
7:35 PM 24.8 °F 13.4 °F 14.0 °F 64% 29.94 in 10.0 mi NW 12.7 mph 23.0 mph N/A   Clear
7:55 PM 23.0 °F 11.1 °F 15.8 °F 74% 29.95 in 10.0 mi NW 12.7 mph 19.6 mph N/A   Clear
8:15 PM 23.0 °F 9.6 °F 14.0 °F 68% 29.96 in 10.0 mi NW 16.1 mph 21.9 mph N/A   Clear
8:35 PM 21.2 °F 8.3 °F 14.0 °F 74% 29.97 in 10.0 mi NW 13.8 mph 21.9 mph N/A   Clear
8:55 PM 21.2 °F 9.5 °F 14.0 °F 74% 29.98 in 10.0 mi NW 11.5 mph 18.4 mph N/A   Clear
9:15 PM 21.2 °F 8.9 °F 14.0 °F 74% 29.99 in 10.0 mi NW 12.7 mph 19.6 mph N/A   Clear
9:35 PM 21.2 °F 7.8 °F 12.2 °F 68% 30.00 in 10.0 mi NW 15.0 mph 26.5 mph N/A   Clear
9:55 PM 19.4 °F 7.9 °F 10.4 °F 68% 30.01 in 10.0 mi NW 10.4 mph 23.0 mph N/A   Clear
10:15 PM 19.4 °F 7.2 °F 10.4 °F 68% 30.02 in 10.0 mi NW 11.5 mph 20.7 mph N/A   Clear
10:35 PM 19.4 °F 7.2 °F 10.4 °F 68% 30.03 in 10.0 mi NW 11.5 mph - N/A   Clear
10:55 PM 19.4 °F 6.0 °F 10.4 °F 68% 30.03 in 10.0 mi NW 13.8 mph 18.4 mph N/A   Clear
11:15 PM 17.6 °F 5.0 °F 10.4 °F 73% 30.04 in 10.0 mi NW 11.5 mph 16.1 mph N/A   Clear
11:35 PM 17.6 °F 6.4 °F 10.4 °F 73% 30.05 in 10.0 mi NW 9.2 mph 17.3 mph N/A   Clear
11:55 PM 17.6 °F 3.7 °F 12.2 °F 79% 30.05 in 10.0 mi NW 13.8 mph 19.6 mph N/A   Clear